Location: *
(50.9167°S, 179.4000°W)
Time: 04:27:14
(UTC+00:00)

ATLAS 2AS CENTAUR R/B - Pass Details

Date: 21 June 2024
Orbit: 1019 x 1192 km, 63.7° (Epoch: 21 July)

Event Time Altitude Azimuth Distance (km) Brightness Sun altitude
Exits shadow 16:57:27 27° 197° (SSW) 2,018 3.9 -27.6°
Maximum altitude 16:59:22 31° 170° (S) 1,896 4.0 -27.3°
Drops below altitude 10° 17:05:49 10° 110° (ESE) 3,091 5.9 -26.3°
Sets 17:08:59 0° 99° (E) 4,071 7.0 -25.8°
